This demonstration page uses our WeatherBlox Daily Observations layout. Learn more.

Left ArrowRight Arrow

34.16533, -84.80231

Hourly Observations for October 6, 2021

Temp ( °F °C ) Dew Point ( °F °C ) Humidity (%) Winds ( mph kmh ) Pressure ( in mb ) Visibility ( mi km ) Precip ( " mm )
12:15 am 00:15 Cloudy 70 21 68 20 94 94 N N/A 30.08 1019 10 16 N/A
12:35 am 00:35 Cloudy 70 21 68 20 94 94 E 3 6 30.08 1019 10 16 N/A
12:55 am 00:55 Cloudy 70 21 68 20 94 94 ESE 5 7 30.08 1019 10 16 N/A
1:15 am 01:15 Cloudy 70 21 68 20 94 94 VRB 3 6 30.09 1019 10 16 N/A
1:35 am 01:35 Cloudy 70 21 68 20 94 94 ESE 5 7 30.09 1019 10 16 N/A
1:55 am 01:55 Cloudy 70 21 68 20 94 94 VRB 3 6 30.09 1019 10 16 N/A
2:15 am 02:15 Cloudy with Light Rain 70 21 68 20 94 94 E 6 9 30.08 1019 8 13 N/A
2:35 am 02:35 Cloudy 70 21 68 20 94 94 ESE 7 11 30.08 1019 10 16 N/A
2:55 am 02:55 Cloudy 70 21 68 20 94 94 ESE 5 7 30.09 1019 10 16 N/A
3:15 am 03:15 Cloudy 70 21 68 20 94 94 N N/A 30.08 1019 10 16 N/A
3:35 am 03:35 Cloudy 70 21 68 20 94 94 N N/A 30.08 1019 9 14 N/A
3:55 am 03:55 Cloudy 70 21 68 20 94 94 N N/A 30.08 1019 10 16 N/A
4:15 am 04:15 Cloudy 70 21 68 20 94 94 N N/A 30.07 1018 10 16 N/A
4:35 am 04:35 Cloudy 70 21 68 20 94 94 N N/A 30.07 1018 9 14 N/A
4:55 am 04:55 Cloudy 70 21 68 20 94 94 N N/A 30.07 1018 8 13 N/A
5:15 am 05:15 Mostly Cloudy 68 20 68 20 100 100 N N/A 30.07 1018 8 13 N/A
5:35 am 05:35 Mostly Cloudy 68 20 68 20 100 100 N N/A 30.08 1019 7 11 N/A
5:55 am 05:55 Cloudy 68 20 68 20 100 100 N N/A 30.09 1019 8 13 N/A
6:15 am 06:15 Cloudy 68 20 68 20 100 100 N N/A 30.09 1019 8 13 N/A
6:35 am 06:35 Cloudy 68 20 68 20 100 100 N N/A 30.10 1019 9 14 N/A
6:55 am 06:55 Cloudy 70 21 68 20 94 94 E 5 7 30.11 1020 9 14 N/A
7:15 am 07:15 Cloudy 70 21 68 20 94 94 E 5 7 30.11 1020 10 16 N/A
7:35 am 07:35 Cloudy 70 21 68 20 94 94 E 5 7 30.11 1020 10 16 N/A
7:55 am 07:55 Cloudy 70 21 68 20 94 94 ESE 6 9 30.11 1020 9 14 N/A
8:15 am 08:15 Cloudy with Light Rain 70 21 68 20 94 94 E 6 9 30.11 1020 3 4 N/A
8:35 am 08:35 Cloudy 70 21 70 21 100 100 ESE 3 6 30.12 1020 8 13 N/A
8:55 am 08:55 Mostly Cloudy 72 22 70 21 94 94 VRB 5 7 30.12 1020 10 16 0.02 0.51
9:15 am 09:15 Cloudy 72 22 68 20 88 88 VRB 6 9 30.12 1020 10 16 N/A
9:35 am 09:35 Cloudy 72 22 70 21 94 94 VRB 6 9 30.13 1020 10 16 N/A
9:55 am 09:55 Cloudy with Nearby Thunderstorms 73 23 70 21 89 89 SE 8 13 30.12 1020 10 16 N/A
10:15 am 10:15 Cloudy 72 22 68 20 88 88 ESE 7 11 30.14 1021 10 16 N/A
10:35 am 10:35 Cloudy 72 22 68 20 88 88 VRB 5 7 30.15 1021 10 16 N/A
10:55 am 10:55 Cloudy 73 23 70 21 89 89 ESE 8 13 30.13 1020 10 16 N/A
11:15 am 11:15 Cloudy 73 23 70 21 89 89 E 8 13 30.13 1020 9 14 N/A
11:35 am 11:35 Cloudy 75 24 70 21 83 83 VRB 6 9 30.12 1020 10 16 N/A
11:55 am 11:55 Cloudy 75 24 70 21 83 83 E 9 15 30.11 1020 10 16 N/A
12:15 pm 12:15 Cloudy 75 24 70 21 83 83 ESE 6 9 30.11 1020 10 16 N/A
12:35 pm 12:35 Mostly Cloudy 79 26 70 21 74 74 SE 13 20 30.10 1019 10 16 N/A
12:55 pm 12:55 Mostly Cloudy 77 25 68 20 74 74 ESE 12 19 30.10 1019 10 16 N/A
1:15 pm 13:15 Cloudy 77 25 70 21 79 79 ESE 12 19 30.09 1019 10 16 N/A
1:55 pm 13:55 Mostly Cloudy 81 27 70 21 70 70 ESE 8 13 30.08 1019 10 16 N/A
2:15 pm 14:15 Mostly Cloudy 79 26 70 21 74 74 E 10 17 30.08 1019 10 16 N/A
2:35 pm 14:35 Mostly Cloudy 79 26 68 20 70 70 ESE 8 13 30.08 1019 10 16 N/A
2:55 pm 14:55 Mostly Cloudy 79 26 68 20 70 70 E 9 15 30.07 1018 10 16 N/A
3:15 pm 15:15 Mostly Cloudy 79 26 68 20 70 70 ESE 8 13 30.07 1018 10 16 N/A
3:35 pm 15:35 Cloudy 79 26 68 20 70 70 SE 13 20 30.07 1018 10 16 N/A
3:55 pm 15:55 Mostly Cloudy 77 25 70 21 79 79 VRB 6 9 30.06 1018 9 14 N/A
4:15 pm 16:15 Mostly Cloudy 77 25 68 20 74 74 ESE 8 13 30.05 1018 10 16 N/A
4:35 pm 16:35 Partly Cloudy 77 25 70 21 79 79 VRB 6 9 30.04 1017 10 16 N/A
4:55 pm 16:55 Partly Cloudy 77 25 68 20 74 74 ESE 15 24 30.05 1018 10 16 N/A
5:15 pm 17:15 Mostly Cloudy 77 25 68 20 74 74 SE 10 17 30.05 1018 10 16 N/A
5:35 pm 17:35 Mostly Cloudy 75 24 66 19 74 74 VRB 6 9 30.05 1018 10 16 N/A
5:55 pm 17:55 Mostly Cloudy 75 24 66 19 74 74 ESE 8 13 30.05 1018 10 16 N/A
6:15 pm 18:15 Cloudy 75 24 66 19 74 74 VRB 6 9 30.06 1018 10 16 N/A
6:35 pm 18:35 Cloudy 75 24 66 19 74 74 VRB 7 11 30.06 1018 10 16 N/A
6:55 pm 18:55 Cloudy 75 24 66 19 74 74 SE 9 15 30.06 1018 10 16 N/A
7:15 pm 19:15 Cloudy 73 23 66 19 78 78 SE 7 11 30.07 1018 10 16 N/A
7:35 pm 19:35 Cloudy 73 23 66 19 78 78 VRB 6 9 30.07 1018 10 16 N/A
7:55 pm 19:55 Cloudy 73 23 66 19 78 78 VRB 6 9 30.07 1018 10 16 N/A
8:15 pm 20:15 Mostly Cloudy 72 22 66 19 83 83 E 8 13 30.08 1019 10 16 N/A
8:35 pm 20:35 Mostly Cloudy 72 22 66 19 83 83 E 7 11 30.08 1019 10 16 N/A
8:55 pm 20:55 Cloudy 72 22 66 19 83 83 ESE 9 15 30.09 1019 10 16 N/A
9:15 pm 21:15 Cloudy 72 22 66 19 83 83 ESE 6 9 30.09 1019 9 14 N/A
9:35 pm 21:35 Cloudy 72 22 68 20 88 88 ESE 6 9 30.09 1019 10 16 N/A
9:55 pm 21:55 Cloudy 72 22 68 20 88 88 VRB 7 11 30.10 1019 10 16 N/A
10:15 pm 22:15 Cloudy with Nearby Thunderstorms 72 22 68 20 88 88 N N/A 30.11 1020 10 16 N/A
10:35 pm 22:35 Cloudy 72 22 68 20 88 88 SE 7 11 30.12 1020 9 14 N/A
10:55 pm 22:55 Cloudy 72 22 68 20 88 88 VRB 6 9 30.11 1020 10 16 N/A
11:15 pm 23:15 Cloudy 72 22 68 20 88 88 VRB 3 6 30.11 1020 10 16 N/A
11:35 pm 23:35 Cloudy with Light Rain 72 22 68 20 88 88 ESE 6 9 30.12 1020 7 11 N/A
11:55 pm 23:55 Cloudy with Light Rain 70 21 68 20 94 94 N N/A 30.12 1020 5 8 0.10 2.54

Powered by AerisWeather